Location: Hillsboro
(38.3483°N, 97.1938°W)
Time: 07:20:16
(UTC-06:00)

Daily predictions for brighter satellites

Satellite Brightness Start Highest point End
(mag) Time Altitude Azimuth Time Altitude Azimuth Time Altitude Azimuth
Cosmos 1486 Rocket 4.1 17:32:30 10° S 17:37:36 59° ESE 17:42:45 10° NNE
SJ-12 4.0 17:33:41 10° SSE 17:37:50 88° W 17:42:00 10° NNW
SMAP 3.3 17:35:14 10° SSE 17:39:42 49° ENE 17:44:12 10° N
Cosmos 1844 Rocket 4.2 17:35:58 10° SW 17:41:06 36° WNW 17:46:15 10° N
BREEZE-M DEB (TANK) 3.4 17:35:49 10° WNW 17:46:24 85° SSW 17:50:01 10° ESE
Cosmos 1633 3.7 17:43:31 10° NNE 17:46:31 23° ENE 17:49:31 10° SE
IDEFIX/ARIANE 42P 4.4 17:44:04 10° SSW 17:48:51 36° W 17:53:39 10° NNW
Cosmos 1782 Rocket 4.5 17:46:01 10° NNE 17:49:43 27° ENE 17:53:25 10° SE
CZ-4C R/B 3.9 17:46:06 10° N 17:51:34 23° NE 17:57:27 10° E
ERBS 3.2 17:48:28 10° NW 17:51:48 52° SW 17:55:06 10° SSE
USA 116 4.1 17:47:43 10° NNE 17:51:52 45° E 17:55:31 10° S
CENTAUR R/B 3.9 17:47:09 10° WSW 17:52:39 34° NW 17:58:51 10° NNE
YAOGAN 1 3.1 17:50:55 10° SE 17:54:53 36° ENE 17:58:51 10° N
Cosmos 1354 Rocket 4.4 17:50:51 10° S 17:55:48 43° ESE 18:00:46 10° NNE
COSMO-SKYMED 1 3.4 17:52:57 10° NE 17:56:45 29° E 18:00:31 10° SSE
CSL-04 Debris 4.2 17:56:38 10° SSE 18:02:04 86° WSW 18:07:31 10° NNW
SPOT 3 Rocket 4.3 17:59:05 10° SE 18:03:32 29° ENE 18:07:59 10° N
Tiangong 1 3.0 18:07:23 10° S 18:08:37 13° SE 18:09:26 11° SE
Cosmos 1833 Rocket 2.9 18:06:39 10° N 18:12:04 46° ENE 18:17:27 10° SE
Cosmos 2221 Rocket 3.7 18:11:31 10° S 18:15:47 52° E 18:20:05 10° NNE
Cosmos 1703 Rocket 3.5 18:11:37 10° S 18:16:05 87° E 18:20:34 10° N
Cosmos 2297 3.7 18:11:48 10° S 18:17:27 68° ESE 18:23:09 10° NNE
OAO 3 Rocket 4.4 18:13:59 10° SW 18:18:21 32° SSE 18:21:32 16° ESE
Cosmos 2034 Rocket 4.3 18:14:56 10° SSE 18:20:52 43° E 18:26:49 10° NNE
Cosmos 2278 Rocket 3.2 18:15:32 10° SW 18:20:58 46° WNW 18:26:25 10° N
CORIOLIS 4.4 18:15:44 10° S 18:21:10 76° WSW 18:26:38 10° NNW
Meteor 1-28 Rocket 4.2 18:25:34 10° N 18:29:07 46° WNW 18:32:40 10° SSW
NOAA 12 4.4 18:24:41 10° SE 18:29:43 45° ENE 18:34:45 10° N
IRS-1A Rocket 4.5 18:26:10 10° S 18:32:00 78° WSW 18:37:44 10° NNW
BREEZE-M R/B 2.5 18:30:38 10° NW 18:33:30 80° NE 18:37:03 17° ESE
CZ-2C R/B 4.4 18:29:30 10° N 18:33:54 55° WNW 18:38:21 10° SSW
GPS 2-05 Rocket1 3.7 18:31:25 10° SW 18:34:20 34° SSE 18:35:12 29° SE
Cosmos 1606 3.3 18:30:58 10° SSW 18:34:41 58° W 18:38:25 10° N
Cosmos 44 Rocket 3.6 18:30:04 10° NNW 18:34:43 42° NE 18:37:32 22° ESE
Okean 2 Rocket 3.1 18:30:27 10° N 18:34:54 55° E 18:39:19 10° SSE
Cosmos 1441 Rocket 3.5 18:31:27 10° SSE 18:35:15 46° E 18:36:58 27° NE
Meteor 1-11 Rocket 4.1 18:30:11 10° N 18:35:44 43° ENE 18:41:07 10° SSE
Thor Agena Rocket 4.4 18:36:30 26° E 18:36:42 26° E 18:40:58 10° SSE
Cosmos 405 3.3 18:35:51 10° N 18:39:18 43° ENE 18:42:43 10° SSE
Cosmos 292 Rocket 3.8 18:37:15 10° N 18:41:55 53° ENE 18:46:33 10° SE
CZ-4 R/B 2.9 18:40:29 10° SSW 18:44:03 36° W 18:47:37 10° NNW
SKYMED 2 3.7 18:40:33 10° N 18:44:53 77° WNW 18:49:13 10° SSW
SL-27 R/B 4.1 18:42:42 10° NW 18:45:47 35° WSW 18:48:52 10° S
MONITOR-E 4.1 18:44:11 10° S 18:47:13 79° WSW 18:50:17 10° NNW
EO 1 Del DPAF 3.4 18:43:31 10° N 18:47:20 71° WNW 18:51:07 10° SSW
Cosmos 1464 Rocket 4.0 18:42:07 10° S 18:48:14 82° W 18:54:25 10° N
MOS 1 4.4 18:47:18 10° SSE 18:53:00 80° WSW 18:58:44 10° NNW
Cosmos 540 Rocket 3.7 18:49:15 10° NNW 18:54:24 71° WSW 18:59:30 10° S
Cosmos 968 Rocket 3.4 18:52:26 10° S 18:57:32 65° ESE 18:59:38 35° NE
Cosmos 44 3.1 18:53:46 10° NNW 18:58:30 77° ENE 19:01:17 26° SE
ERS-2 3.4 18:56:45 10° S 19:00:15 42° W 19:03:46 10° NNW
USA 234 3.2 18:58:41 29° NE 19:02:23 88° SE 19:08:55 10° SW
Cosmos 2082 Rocket 2.5 18:56:52 10° NNW 19:02:31 68° WSW 19:08:06 10° S
Cosmos 1602 3.8 19:00:20 10° N 19:04:10 74° W 19:08:00 10° S
ALOS 2.4 19:04:58 10° S 19:09:36 72° WSW 19:14:17 10° NNW
Cosmos 405 Rocket 3.7 19:06:04 10° SSW 19:09:43 45° WNW 19:11:48 22° NNW
Meteor 2-20 Rocket 4.3 19:04:58 10° N 19:11:04 71° E 19:17:06 10° SSE
Celestis-02/Orion 38 4.5 19:22:05 68° SE 19:22:05 68° SE 19:27:07 10° SSW
FengYun 1-2 T 4.0 19:18:28 10° SSE 19:23:57 74° ENE 19:29:30 10° N
CZ-4C R/B 2.8 19:33:42 10° NNW 19:41:03 87° ENE 19:43:23 51° SE
Gblst 52 Del rocket 4.3 19:35:54 10° SW 19:40:48 67° SSW 19:40:48 67° SSW
USA 229 DEB 3.6 19:45:46 10° SW 19:52:31 83° WNW 19:52:44 81° NNW
USA 229 3.6 19:45:53 10° SW 19:52:37 83° NW 19:52:47 83° NNW
Cosmos 2369 Rocket 3.6 19:50:44 10° SSW 19:53:19 28° SSW 19:53:19 28° SSW
